Race Results for
Priority Health Race for Wishes
Lawton, MI
(Event Information)
View By:
Road Race on 07/17/2011

Note: Ranking points are NOT upgrade points. An explanation of ranking points can be found here.


Men - Cat 5

 Place Points NameCity, StateTime USAC #BibTeam
1540.00Collin Johnson   Ann Arbor, MI01:31:13 351794  622 University of Michigan
2542.17Joe Thomas   Kalamazoo, MI01:31:13 353598  621 CMS Race Team
3544.34Aaron VandeWege   Rockford, MI01:31:14 334316  610 Speed Merchants
4546.51Winston Benedict   Ann Arbor, MI01:32:55 352042  618 Ann Arbor Velo Club
5548.68David Buick   Portage, MI01:33:56 356318  612 unattached
6550.85Hans Juntunen   Kalamazoo, MI01:33:56 350168  626 Pedal Bicycles
7553.02Nathan Sotherland   Kalamazoo, MI01:34:14 353584  633 CMS Race Team
8555.19Steven Sagers   Schoolcraft, MI01:34:16 353296  620 Ventus Cycling Team
9557.36E Fulkerson   Kalamazoo, MI01:34:16 69598  608 PrecisionMTB.com
10Kurt Sherwood   01:34:17  624 Pedal Bicycles
11Mike Peterson   01:34:35  616 Pedal Bicycles
12563.87Jeremy VanSpronsen   Kalamazoo, MI01:37:58 341250  619 CMS Race Team
13566.04Jeff Cachero   Kalamazoo, MI01:38:03 356528  614 unattached
14568.21Kevin Long   Augusta, MI01:38:07 357178  617 unattached
15Josh Foote   01:38:08  628 Pedal Bicycles
16572.55Anthony Whitt   Fort Wayne, IN01:38:14 325272  611 XXX Racing
17Mostyn Lumbard   01:38:20  601 Pedal Bicycles
18576.89Ryan Maguire   Kalamazoo01:38:20 400578  631 unattached
19David Mitchell   01:38:20  604 Pedal Bicycles
20Tim Krone   01:42:51  602 Pedal Bicycles
21Bart VanDerHammer   01:42:52  627 Pedal Bicycles
22Terry Butcher   01:43:38  629 TeamTaylor/KBC
23587.74Ben Merritt   Belmont, MI01:43:40 334664  605 Fusion IT
24589.91James Hartwell   Saint Joseph, MI01:54:05 337494  606 Leadout Racing
DNSJim Patti   Chicago, IL 302828  609 XXX Racing
DNSTJ Seiwert     613 unattached
DNSRobert Randall   Portage, MI 355748  623 Kalamazoo Bicycle Club
DNFAaron Huntington   Grand Rapids, MI 345002  603 Speed Merchants
DNFSteve Penix     630 unattached
DNFJoel Bush   Grand Rapids, MI 321060  615 unattached
DNFSteve Spiech     625 unattached
DNFRob Grainger     632 TeamTaylor
DNFKevin Cleary     634 TriKats

Men - Cat 4

 Place Points NameCity, StateTime USAC #BibTeam
1471.58Ryan Kenny   Henderson, NV02:05:30 284331  504 Tri-City Cyclists
2478.69Joel Paquette   Berriensprings, MI02:05:48 307247  512 Priority Health
3485.80Keigo Higaki   Canton, MI02:05:48 304287  514 Racing Greyhounds
4492.91Jesse Riegle   Richland, MI02:09:13 315126  516 CMS Race Team
5500.02Justin Sprung   Portage02:10:26 274267  501 CMS Race Team
6507.13Christopher Vitton   Rockford, MI02:10:28 302801  503 Speed Merchants
7514.24Ernie Riley   Midland, MI02:10:28 305656  511 Tri-City Cyclists
8521.35Nick Mathis   Wyoming, MI02:10:29 170776  517 Grand Rapids Bicycling Co
9528.46Benjamin Rollenhagen   East Lansing, MI02:10:29 240802  515 Tri-City Cyclists
10535.57Mark Winters   Grandrapids, MI02:10:35 288951  508 Speed Merchants
11542.68Ryan Wolff   Spring Lake, MI02:10:35 337458  513 West MI Coast Riders
12549.79Darryl Dolby   Portage, MI02:10:35 264814  507 CMS Race Team
13556.90Charles Clark   Vicksburg 02:10:36 221527  502 CMS Race Team
14564.01Joseph Yaeger   Lakeland, FL02:10:50 292027  506 CMS Race Team
15571.12Jason Goodin   Portage, MI02:10:51 295593  510 CMS Race Team
16578.23Robert Wydra   Detroit, MI02:23:00 179571  505 Wolverine Sports Club
DNSJeff Chapin   Verona, WI 311570  509 Team Giant
DNFLuke Miller   Richland, MI 266301  518 Priority Health

Men - Cat 3

 Place Points NameCity, StateTime USAC #BibTeam
1359.80Brian Wachlarz   Royal Oak, MI02:33:32 259572  103 Wolverines/ACF Stores
2377.57Kyle Selph   Aurora , IL02:35:28 290759  101 Tower Racing
3395.34Adam Kaye   Ann Arbor, MI02:41:46 290612  104 University of Michigan
4413.11Keith Marek   Fremont, MI02:41:46 305493  113 Priority Health
5430.88Evan Boese   Richland, MI02:41:46 300804  106 Ventus Cycling Team
6448.65Bryan Kuyper   Grandrapids, MI02:41:49 310893  112 Leadout Racing
7466.42Justin Perry   Grand Haven, MI02:41:50 295935  115 SCTNOW/Faith Hospice
8484.19Patrick Robb   Royal Oak, MI02:41:54 48371  111 Wolverine
9501.96anthony prentice   Allendale 02:41:56 292144  114 Priority Health
10519.73Michael Cook   South Bend , IN02:46:08 273966  109 SpinZone Racing
11537.50Gregory Brown   Traversecity, MI03:10:31 279437  108 Priority Health
DNFDavid Boboltz   Kalamazoo, MI 120317  102 East Hills Velo
DNFBrad Brooks   Grand Rapids, MI 201899  105 DC Velo/ Martens Volvo
DNFDrew Martin   Ada, MI 292972  110 Miller Energy
DNFDouglas Ansel   South Bend, IN 213223  107 Proform Roeing

Men - Pro/Cat 1/2

 Place Points NameCity, StateTime USAC #BibTeam
1Sven Baumann   03:18:20  BMC Achowline
2336.78Christopher Fisher   Leland Mi03:18:20 11699  Priority Health
3352.45Alex Vanias   Leroy, MI03:20:10 291766  Priority Health
4368.12Andrew Florian   Kalamazoo, MI03:20:10 198114  Priority Health
5383.79Raymond Dybowski   Waterford, MI03:24:36 10313  Wolverine/ACF Stores.com
6399.46Zachary Maino   Jackson Mi03:30:22 235419  Ventus Cycling Team
7415.13Mark Bush   Lawton, MI03:30:22 274918  Ventus Cycling Team

Men - Master - 35-44

 Place Points NameCity, StateTime USAC #BibTeam
1303.45Tom Linck   Ada, MI02:42:07 225784  201 Priority Health
2322.09Jason Young   Portage, MI02:42:13 159810  209 East Hills Velo
3340.73James Ignash   Clawson, MI02:46:54 276023  202 Team O2
4359.37Mike Jones   Kalamazoo, MI02:51:55 18223  204 Ventus Cycling Team
5378.01Mark Cahn   W Bloomfield, MI02:51:56 45148  205 Team O2/Cadieux
6396.65Rick Snow   Macomb, MI02:51:56 56503  207 team Giant
7415.29Houston Peterson (1 - Cat1)   Kalamazoo, MI02:51:56 48753  210 Kinetic Systems
8433.93Joe Kucharski   Portage, MI02:52:21 309941  208 Priority Health
9452.57Brandan Hill (1 - Cat3)   Ada, MI02:54:37 71358  203 Priority Health
DNFChristopher Howard (Cat4)   Kalamazoo, MI 298152  206 Priority Health

Men - Master - 45-54

 Place Points NameCity, StateTime USAC #BibTeam
1397.21Douglas Braun   Downers Grove, IL02:49:22 274582  304 unattached
2419.39Peter O'Brien   Grand Rapids, MI02:49:23 345098  305 unattached
3441.57Craig Gietzen   Rockford, MI02:49:23 13211  301 Priority Health
4463.75Mike VanHouten   Grand Rapids, MI02:49:24 239548  303 Bissell/ABG
5485.93Samuel George   Sparta, MI02:49:24 46693  307 Priority Health
6508.11Steve Gardon (1 - Cat4)   Novi, MI02:49:30 345980  302 unattached
7530.29Michael Birmann   Portage, MI02:49:37 263155  309 Priority Health
8552.47Jeffrey Warner   Temperance, MI03:00:21 249166  308 Maumee Valley Wheelmen
9574.65Steven Brown   Traverse City, MI03:03:31 82604  306 Priority Health
DNFJohn Korycki (Cat2)   Kalamazoo, MI 47391  211 unattached

Men - Master - 55-99

 Place Points NameCity, StateTime USAC #BibTeam
1Loren Simons   St Johns, MI02:10:28 47936  351 Priority Health

Men - Junior - 13-14

 Place Points NameCity, StateTime USAC #BibTeam
2Nikolai Minka   Plainwell, MI00:47:40 348512  853 Priority Health

Men - Junior - 15-16

 Place Points NameCity, StateTime USAC #BibTeam
2Dylan Gonda   Portage, MI01:10:28 315864  802 CMS Race Team
4David Hartwell   Saint Joseph, MI01:12:30 352776  801 unattached

Men - Junior - 17-18

 Place Points NameCity, StateTime USAC #BibTeam
1Brandon George   Sparta, MI01:09:41 322946  852 Priority Health
3Alexander Woolf   01:10:28  803 unattached

Women - Cat 4

 Place Points NameCity, StateTime USAC #BibTeam
1Hayley Braun   Kalamazoo, MI01:53:16 320212  702 Priority Health Cycling Team
2Sandy Reid   Kalamazoo, MI01:53:17 355026  701 Team Taylor

Women - Cat 3

 Place Points NameCity, StateTime USAC #BibTeam
1490.96Chelsea Clark   Grand Rapids, MI02:33:41 309613  453 Miller Energy p/b Gr. Bicycle C
2523.97Abby Martin   Grand Rapids, MI02:33:42 317498  451 Miller Energy p/b Gr. Bicycle C
3556.98Laura Melendez   Grand Rapids, MI02:33:43 225973  452 Priority Health
4589.99Monica Tory   Kalamazoo, MI02:33:57 255445  454 Fusion IT

Women - Pro/Cat 1/2

 Place Points NameCity, StateTime USAC #BibTeam
1375.45Kathy Kirk (1 - Cat2)   Kalamazoo, MI02:24:31 208216  403 Priority Health
2427.64Leslie Gaines (2 - Cat2)   Okemos, MI02:24:32 182278  404 Priority Health
3479.83Antonia Musto   Ada, MI02:33:57 213753  402 Priority Health
4532.02Amy Stauffer   Lowell, MI02:33:58 151668  401 Priority Health

Women - Junior - 13-14

 Place Points NameCity, StateTime USAC #BibTeam
1Anna Kreslins   Fremont, MI00:35:19 350212  851 Priority Health

Women - Junior - 17-18

 Place Points NameCity, StateTime USAC #BibTeam
5Charlotte Long   Augusta, MI01:26:39 356887  804 Priority Health

Report missing or incorrect license numbers

Volkswagen
Sierra NevadaUSACDFShimanoBonk BreakerSpy
UCI USA Cycling is the official governing body for all disciplines of competitive cycling in the United States. The 501c3, membership-based organization aims both to achieve sustained success in international cycling competition and to grow competitive cycling in America while delivering an exceptional customer experience.
View Children's Online Privacy Protection Policy
US Olympic Committee